Погода в Львове

Поиск расширенной информации на нашем сайте:

Полезная информация:

Новости сайта



02.01.2020
Опубликован Долгосрочный прогноз погоды по городам России и ближнего зарубежья на январь 2020 года.
Карты: Прогноз на январь и февраль 2020 года, Сравнение прогнозируемой аномалии приземной температуры воздуха на январь 2020 года по разным моделям.




Погода в Львове - сегодня

Время (UTC), дата Ветер
(°,м/с) 
Видим.   Явления Облачность Т
(°С)
Тd
(°С)
f(%) Тe
(°С)
Pmin
(гПа)
dP
(гПа)
Po
(мм)
O2
(г/м3)
Тmin Tmax R s Состояние
почвы
00 19.01.20 130 (ЮВ) 2800 м  дымка  10/10 30 м 
[St]
-2.7 -3.1 97 -4  1026.5  739  301           
03 19.01.20 тихо ()   1900 м  в посл. час туман  10/10 60 м 
[St]
-3.2 -3.6 97 -3  1027.5  0.9  740  302           
06 19.01.20 тихо ()   0300 м  туман  ?/?  
-3.1 -3.2 99 -3  1028.6  741  302  -3.2         
09 19.01.20 тихо ()   0400 м  туман  ?/?  
-2.7 -2.8 99 -3  1030.2  1.6  742  302           
12 19.01.20 300 (СЗ) 2000 м  дымка{туман}  10/10 100 м 
[St]
-2.2 -2.5 98 -2  1031.1  743  302           
15 19.01.20 тихо ()   9000 м  дымка  10/10 270 м 
[St]
-1.4 -2.5 92 -1  1033.1  744  302           
18 19.01.20 тихо ()   4300 м  дымка  10/10 150 м 
[St]
-1.3 -1.8 96 -1  1035.2  746  302    -1.1       
21 19.01.20 360 (С) 3800 м  слаб. переохл. морось (гололёд)  10/10 60 м 
[St]
-1.4 -1.9 96 -1  1037.2  747  303           
00 20.01.20 тихо ()   7000 м  в посл. час переохл. осадки (гололёд){морось}  10/10 150 м 
[St]
-1.3 -2.1 94 -1  1039.1  1.8  749  303           
03 20.01.20 330 (СЗ) 5000 м  дымка  10/10 100 м 
[St]
-1.3 -2.4 92 -1  1040.6  1.4  750  304           
06 20.01.20 360 (С) 4300 м  дымка  10/10 100 м 
[St]
-1.1 -2.1 93 -1  1042.4  1.7  751  304  -1.5    0.1     
09 20.01.20 310 (СЗ) 3400 м  дымка  10/10 100 м 
[St]
-0.7 -1.7 93 -2  1044.3  752  304           
12 20.01.20 310 (СЗ) 7000 м  дымка  10/10 210 м 
[St]
+0.3 -0.5 94 1044.7  0.5  753  303           
15 20.01.20 320 (СЗ) 10 км    10/10 420 м 
[Sc]
+0.5 -1.5 86 -1  1044.9  0.2  753  303           
18 20.01.20 290 (З) 10 км    10/10 570 м 
[Sc]
+0.4 -1.5 87 -1  1045.2  0.3  753  303    +0.6       
21 20.01.20 280 (З) 10 км    10/10 570 м 
[Sc]
+0.5 -1.1 89 -1  1044.3  -0.8  752  303           
00 21.01.20 300 (СЗ) 10 км    10/10 450 м 
[Sc]
+0.4 -2.3 82 -3  1043.7  -0.6  752  303           
03 21.01.20 280 (З) 10 км    10/10 400 м 
[Sc]
-0.1 -2.2 86 -4  1041.7  -2  751  303           
06 21.01.20 290 (З) 10 км    10/10 360 м 
[Sc]
-0.7 -2.5 88 -4  1041.1  -0.7  750  303  -0.7         
09 21.01.20 280 (З) 10 км    8/8 420 м 
[Sc]
+0.4 -2.3 82 -3  1039.7  -1.2  749  302           
12 21.01.20 280 (З) 10 км    6/0 средняя 
[Ac trans]
+3.7 -2.6 63 +1  1037.2  -1.9  748  298           
15 21.01.20 260 (З) 10 км    6/0 средняя 
[Ac trans]
+3.7 -3.6 59 +1  1035.1  -2  746  297           
18 21.01.20 270 (З) 10 км    ясно 
+2.2 -4.6 61 1033.7  -1.6  745  298    +4.9       
21 21.01.20 280 (З) 10 км    ясно 
+1.4 -4.1 67 -2  1032.8  -0.9  744  299           
00 22.01.20 290 (З) 10 км    3/0 верхняя 
[Ci fib]
-0.6 -4 78 -3  1031.4  -1.6  743  301           
Время (UTC), дата Ветер
(°,м/с) 
Видим.   Явления Облачность Т
(°С)
Тd
(°С)
f(%) Тe
(°С)
Pmin
(гПа)
dP
(гПа)
Po
(мм)
O2
(г/м3)
Тmin Tmax R s Состояние
почвы

Для получения пояснительной информации подведите курсор к названию столбца.

ПОГОДА в Львове - архив

Всё, что Вы хотите узнать о погоде в Львове - удобно и подробно!

Выберите нужную дату (начиная с 1 января 2019* года) и нажмите кнопку "Найти".
Будут отображены архивные сводки погоды по пункту Львов, начиная с указанной даты.


Отображать данные в формате CSV (для использования в таблицах Excel)


Внимание! Наш архив погоды предназначен исключительно для личного некоммерческого использования в познавательных целях. Если Вам необходимы официальные справки о состоянии погоды (для производственных, юридических, коммерческих и т.п. целей), обращайтесь в органы Росгидромета.

*Примечание: данная дата относится к архиву по метеостанциям СССР (Россия, СНГ, Балтия).
Архив по метеостанциям Зарубежной Европы и Азии (кроме Китая) хранится 10 дней, по другим регионам земного шара (Китай, Африка, Америка, Австралия, Океания) - 1 день.

Львов - район местоположения метеостанции


Название, широта, долгота, высота метеостанции:
Львов 49.8°ш. 23.9°д. 323 м над ур. моря [Украина]

Дополнительная информация

В oтличие oт бoльшинства пoгoдных сайтoв мы публикуем пoдрoбную метеoинфoрмацию в детальнoм прoфессиoнальнoм фoрмате.

Характеристики температуры и влажнoсти вoздуха измеряются на высoте 2 м в тени вдали oт зданий и деревьев.
Скoрoсть ветра измеряется на высoте 10 м (на урoвне рoста челoвека скoрoсть ветра ниже в 1.5-2 раза). Если метеoстанция нахoдится в гoрoде или в лесу, тo скoрoсть ветра занижена на 2-4 м/с пo сравнению с oткрытым местoм. Скoрoсть ветра над акватoриями крупных рек и oзёр, а также на вершинах хoлмoв на 2-5 м/с выше, чем в oбычных услoвиях.
Атмoсфернoе давление в разных тoчках местнoсти мoжет значительнo oтличаться oт давления на метеoстанции, в зависимoсти oт услoвий рельефа (при пoдъёме на 10 м давление пoнижается примернo на 1 мм рт.ст.).